DRRG weather

Gaya Airport
Gaya, Dosso Region, Niger

Public forecast

Using degrees Celsius for public forecast. Weather courtesy of forecast.io.

METAR (pilot weather report)

Report is more than 6 hours old.

Retrieved 2009/08/21 15:00 UTC (10 years ago):

DRRG 211500Z 18004KT 9999CTU SCT140 FEW040CB BKN140 ORAGE SECTEUR NORD

TAF (pilot weather forecast)

Closest forecast is Diori Hamani International Airport, 120.7 nm (223.5 km) NW. Retrieved 2019/04/20 06:21 UTC (3 hours ago):

TAF DRRN 200500Z 2006/2112 16008KT 6000 NSC TEMPO 2006/2009 3500 DU TEMPO 2017/2020 3500 DU